Location: Basse Occidentale du Courleau
(48.3833°N, 4.8333°W)
Time: 09:46:04
(UTC+00:00)

Cosmos 371 Rocket - Pass Details

Date: 05 July 2020
Orbit: 684 x 698 km, 74.0° (Epoch: 08 August)

Event Time Altitude Azimuth Distance (km) Brightness Sun altitude
Rises 23:41:03 0° 338° (NNW) 3,086 8.2 -18.3°
Reaches altitude 10° 23:43:24 10° 341° (NNW) 2,162 7.1 -18.4°
Maximum altitude 23:48:16 70° 65° (ENE) 739 3.4 -18.5°
Enters shadow 23:50:25 33° 141° (SE) 1,161 4.0 -18.6°
